Location: Doschendorf
(50.0069°N, 11.0602°E)
Time: 03:42:15
(UTC+00:00)

Tsikada Rocket - Pass Details

Date: 17 November 2019
Orbit: 958 x 1009 km, 82.9° (Epoch: 12 December)

Event Time Altitude Azimuth Distance (km) Brightness Sun altitude
Rises 18:11:14 0° 194° (SSW) 3,706 7.2 -25.7°
Reaches altitude 10° 18:13:46 10° 197° (SSW) 2,766 6.5 -26.1°
Maximum altitude 18:20:07 72° 281° (W) 1,058 4.2 -27.1°
Drops below altitude 10° 18:26:34 10° 7° (N) 2,800 6.4 -28.2°
Sets 18:29:09 0° 9° (N) 3,754 7.0 -28.6°
